Waarnemingen

Advertentie
Mijn weer
Geneve-Cointrin, Zwitserland (6700): temperatuur & dauwpunt: 13.01.2020 09:00:00 - 19.01.2020 09:00:00 (CET)Geneve-Cointrin, Zwitserland (6700): temperatuur 5cm: 13.01.2020 09:00:00 - 19.01.2020 09:00:00 (CET)Geneve-Cointrin, Zwitserland (6700): windsnelheid & windstoten: 13.01.2020 09:00:00 - 19.01.2020 09:00:00 (CET)Geneve-Cointrin, Zwitserland (6700): windrichting: 13.01.2020 09:00:00 - 19.01.2020 09:00:00 (CET)Geneve-Cointrin, Zwitserland (6700): luchtdruk: 13.01.2020 09:00:00 - 19.01.2020 09:00:00 (CET)Geneve-Cointrin, Zwitserland (6700): zicht: 13.01.2020 09:00:00 - 19.01.2020 09:00:00 (CET)Geneve-Cointrin, Zwitserland (6700): Zonneschijnduur: 13.01.2020 09:00:00 - 19.01.2020 09:00:00 (CET)Geneve-Cointrin, Zwitserland (6700): neerslag: 13.01.2020 09:00:00 - 19.01.2020 09:00:00 (CET)
Datum & Tijd tt [°C] td [°C] tt 5cm [°C] ff [km/u] ff [kn] fx [km/u] fx [kn] dd ppp [hPa] vv [km] sd [min] rr [mm]
19.01.2020 09:00:00 2,5 -3,4 1,1 31 17 56 30 NNO 1031,2 - 0 0,0
19.01.2020 08:00:00 2,8 -3,4 1,2 28 15 46 25 NNO 1030,6 - 0 0,0
19.01.2020 07:00:00 2,8 -3,0 1,3 25 14 43 23 NNO 1030,5 40 0 0,0
19.01.2020 06:00:00 2,6 -2,6 1,3 20 11 35 19 NNO 1030,0 - 0 0,0
19.01.2020 05:00:00 3,0 -3,4 1,2 18 10 30 16 NNO 1029,7 - 0 0,0
19.01.2020 04:00:00 1,7 -3,9 -2,2 6 3 16 9 N 1030,2 - 0 0,0
19.01.2020 03:00:00 1,6 -3,3 -2,7 7 4 26 14 NNO 1030,1 - 0 0,0
19.01.2020 02:00:00 2,2 -2,4 -0,1 13 7 23 13 NNO 1029,4 - 0 0,0
19.01.2020 01:00:00 0,1 -3,8 -4,3 4 2 12 7 N 1029,2 - 0 0,0
19.01.2020 00:00:00 1,7 -2,9 -3,4 3 2 21 12 N 1028,8 - 0 0,0
18.01.2020 23:00:00 -1,6 -3,5 -5,2 5 3 12 7 NNO 1029,3 - 0 0,0
18.01.2020 22:00:00 -2,3 -3,5 -4,3 2 1 6 4 W 1029,4 50 0 0,0
18.01.2020 21:00:00 -0,1 -2,9 -3,9 5 3 11 6 N 1028,9 - 0 0,0
18.01.2020 20:00:00 0,5 -1,7 -3,7 1 1 13 7 N 1028,8 - 0 0,0
18.01.2020 19:00:00 1,5 -1,3 -2,6 4 2 9 5 N 1028,6 70 0 0,0
18.01.2020 18:00:00 2,9 -1,0 -1,4 5 3 12 6 N 1028,2 - 0 0,0
18.01.2020 17:00:00 5,7 -2,0 3,5 7 4 15 8 NNO 1027,6 - 57 0,0
18.01.2020 16:00:00 6,7 -1,4 6,4 11 6 25 13 NO 1027,8 70 59 0,0
18.01.2020 15:00:00 6,8 -0,2 5,7 12 6 19 11 NO 1027,8 - 49 0,0
18.01.2020 14:00:00 7,4 -0,8 6,7 5 3 12 7 NNO 1028,2 - 46 0,0
18.01.2020 13:00:00 6,9 -0,4 8,6 2 1 9 5 Z 1029,0 75 53 0,0
18.01.2020 12:00:00 5,8 0,5 7,2 3 2 12 7 WNW 1030,0 - 60 0,0
18.01.2020 11:00:00 4,5 0,6 4,9 8 4 13 7 ZW 1030,7 - 60 0,0
18.01.2020 10:00:00 2,4 1,0 2,3 5 3 14 8 ZZO 1030,9 75 51 0,0
18.01.2020 09:00:00 -0,1 -0,8 -2,4 4 2 8 5 ZW 1031,3 - 2 0,0
18.01.2020 08:00:00 -1,1 -1,3 -3,6 5 3 11 6 NNW 1031,4 - 0 0,0
18.01.2020 07:00:00 -0,2 -0,7 -3,6 4 2 7 4 NNO 1031,4 22 0 0,0
18.01.2020 06:00:00 0,0 -0,3 -3,2 4 2 10 5 ZW 1031,2 - 0 0,0
18.01.2020 05:00:00 1,4 0,7 -1,5 6 4 10 5 ZZO 1030,8 - 0 0,0
18.01.2020 04:00:00 2,3 1,0 -0,8 2 1 11 6 N 1030,3 - 0 0,0
18.01.2020 03:00:00 2,1 1,8 -0,5 3 2 9 5 NNO 1030,2 - 0 0,0
18.01.2020 02:00:00 3,9 3,5 1,1 6 4 18 10 ZZO 1029,6 - 0 0,1
18.01.2020 01:00:00 4,5 4,0 3,7 12 6 18 10 ZZW 1029,2 - 0 0,6
18.01.2020 00:00:00 5,2 3,7 3,7 14 7 20 11 Z 1028,3 - 0 0,5
17.01.2020 23:00:00 5,4 4,0 4,1 13 7 22 12 ZW 1027,8 - 0 0,1
17.01.2020 22:00:00 5,4 4,1 4,1 12 6 19 10 ZZW 1027,2 12 0 0,1
17.01.2020 21:00:00 4,9 4,6 3,9 6 4 18 10 Z 1026,5 - 0 0,0
17.01.2020 20:00:00 5,5 4,3 4,4 11 6 19 10 Z 1025,3 - 0 0,3
17.01.2020 19:00:00 6,4 5,0 5,1 5 3 12 7 W 1025,1 10 0 1,4
17.01.2020 18:00:00 6,0 5,0 4,6 2 1 8 5 NW 1024,4 - 0 0,1
17.01.2020 17:00:00 5,9 5,1 4,8 4 2 7 4 N 1023,8 - 0 0,4
17.01.2020 16:00:00 5,7 5,2 5,0 5 3 11 6 OZO 1023,2 15 0 0,3
17.01.2020 15:00:00 6,0 4,9 5,1 5 3 10 6 NW 1022,9 - 0 1,2
17.01.2020 14:00:00 5,4 4,1 4,8 4 2 9 5 NW 1023,4 - 0 0,8
17.01.2020 13:00:00 5,0 4,7 4,8 5 3 9 5 ZZO 1023,8 12 0 0,4
17.01.2020 12:00:00 5,0 1,9 3,9 3 1 5 3 WNW 1024,1 - 0 0,0
17.01.2020 11:00:00 4,3 1,6 3,5 3 2 13 7 N 1024,6 - 0 0,0
17.01.2020 10:00:00 2,6 0,9 1,8 3 2 8 4 NW 1025,4 40 0 0,0
17.01.2020 09:00:00 1,7 -0,1 -0,1 4 2 12 7 WNW 1026,1 - 0 0,0
17.01.2020 08:00:00 -0,8 -1,4 -1,9 4 2 12 7 W 1026,4 - 0 0,0
17.01.2020 07:00:00 -0,9 -1,8 -3,3 3 1 7 4 NNW 1026,5 40 0 0,0
17.01.2020 06:00:00 -1,2 -2,1 -4,1 8 4 12 6 N 1026,8 - 0 0,0
17.01.2020 05:00:00 -1,1 -1,5 -4,3 3 2 10 6 Z 1026,8 - 0 0,0
17.01.2020 04:00:00 -1,8 -2,6 -4,5 4 2 9 5 W 1027,2 - 0 0,0
17.01.2020 03:00:00 -1,5 -2,7 -3,9 7 4 9 5 ZW 1027,5 - 0 0,0
17.01.2020 02:00:00 -0,7 -1,3 -3,8 2 1 13 7 ZZO 1027,4 - 0 0,0
17.01.2020 01:00:00 -0,8 -1,3 -3,9 2 1 8 5 N 1028,0 - 0 0,0
17.01.2020 00:00:00 0,1 -0,7 -3,1 3 2 6 3 W 1028,0 - 0 0,0
16.01.2020 23:00:00 0,1 -0,9 -1,9 4 2 6 3 WZW 1028,1 - 0 0,0
16.01.2020 22:00:00 1,9 0,4 -2,0 1 1 10 6 W 1028,2 50 0 0,0
16.01.2020 21:00:00 3,3 1,1 -1,2 3 1 5 3 NW 1028,3 - 0 0,0
16.01.2020 20:00:00 2,8 0,7 -1,1 4 2 5 3 NNW 1028,8 - 0 0,0
16.01.2020 19:00:00 5,0 1,3 0,3 2 1 5 3 NNW 1028,4 50 0 0,0
16.01.2020 18:00:00 6,6 1,5 1,1 3 2 6 3 N 1028,0 - 0 0,0
16.01.2020 17:00:00 8,1 1,8 5,1 3 1 13 7 OZO 1027,5 - 33 0,0
16.01.2020 16:00:00 9,8 1,3 10,7 5 3 10 5 ONO 1027,1 50 60 0,0
16.01.2020 15:00:00 9,7 1,0 8,8 5 3 16 9 Z 1027,5 - 54 0,0
16.01.2020 14:00:00 9,0 0,8 8,5 2 1 7 4 OZO 1028,1 - 60 0,0
16.01.2020 13:00:00 8,1 1,5 10,8 3 1 10 5 O 1028,9 50 60 0,0
16.01.2020 12:00:00 7,3 2,3 9,6 1 0 5 3 N 1029,7 - 60 0,0
16.01.2020 11:00:00 5,7 1,5 7,3 4 2 11 6 ZO 1030,7 - 60 0,0
16.01.2020 10:00:00 2,8 1,0 2,8 4 2 7 4 W 1031,1 50 52 0,0
16.01.2020 09:00:00 -0,6 -1,5 -2,4 3 2 12 6 W 1031,5 - 0 0,0
16.01.2020 08:00:00 -0,3 -1,1 -3,5 2 1 11 6 N 1031,4 - 0 0,0
16.01.2020 07:00:00 -0,6 -1,2 -3,0 5 3 9 5 NW 1031,1 50 0 0,0
16.01.2020 06:00:00 0,1 -0,7 -3,2 3 2 13 7 NNO 1031,0 - 0 0,0
16.01.2020 05:00:00 0,9 0,3 -2,5 2 1 13 7 N 1030,8 - 0 0,0
16.01.2020 04:00:00 1,9 1,1 -0,8 7 4 10 5 NW 1030,7 - 0 0,0
16.01.2020 03:00:00 1,7 0,9 0,0 2 1 6 3 W 1030,9 - 0 0,0
16.01.2020 02:00:00 1,9 1,2 -1,7 1 1 6 4 Z 1030,5 - 0 0,0
16.01.2020 01:00:00 2,5 1,2 -0,5 1 0 7 4 N 1030,5 - 0 0,0
16.01.2020 00:00:00 3,9 2,5 1,1 5 3 9 5 N 1030,1 - 0 0,0
15.01.2020 23:00:00 5,1 2,9 0,9 8 4 17 9 ZW 1029,1 - 0 0,0
15.01.2020 22:00:00 7,3 3,8 3,5 11 6 21 12 ZW 1028,4 65 0 0,0
15.01.2020 21:00:00 7,4 3,6 3,6 10 6 16 9 ZW 1027,9 - 0 0,0
15.01.2020 20:00:00 6,3 3,5 2,1 6 3 14 8 ZO 1027,7 - 0 0,0
15.01.2020 19:00:00 8,1 3,7 5,6 7 4 29 16 W 1026,5 70 0 0,0
15.01.2020 18:00:00 9,6 3,6 6,1 19 10 32 17 ZZW 1025,3 - 0 0,0
15.01.2020 17:00:00 10,2 3,4 7,9 14 8 53 29 ZZW 1024,5 - 43 0,0
15.01.2020 16:00:00 11,5 3,3 10,4 28 15 45 24 ZZW 1023,3 65 37 0,0
15.01.2020 15:00:00 11,8 2,6 10,6 29 16 49 27 ZZW 1022,8 - 1 0,0
15.01.2020 14:00:00 12,1 0,7 10,7 35 19 56 31 ZZW 1021,9 - 51 0,0
15.01.2020 13:00:00 12,5 0,7 13,4 24 13 40 22 ZZW 1022,1 45 60 0,0
15.01.2020 12:00:00 11,7 0,6 12,1 23 12 42 23 ZW 1022,3 - 60 0,0
15.01.2020 11:00:00 10,1 0,5 9,2 10 5 22 12 WZW 1022,4 - 60 0,0
15.01.2020 10:00:00 7,9 0,1 7,2 15 8 27 15 ZW 1022,2 45 54 0,0
15.01.2020 09:00:00 5,2 -0,9 -0,1 12 6 22 12 ZW 1022,4 - 0 0,0
15.01.2020 08:00:00 3,7 -1,1 -1,6 8 4 13 7 WZW 1022,0 - 0 0,0
15.01.2020 07:00:00 2,0 -1,1 -3,0 3 2 5 3 N 1022,1 18 0 0,0
15.01.2020 06:00:00 1,3 -1,2 -2,4 3 1 7 4 NNW 1022,0 - 0 0,0
15.01.2020 05:00:00 2,9 -0,8 -1,5 2 1 6 4 NO 1021,7 - 0 0,0
15.01.2020 04:00:00 7,3 -0,3 2,6 6 4 24 13 ZW 1021,0 - 0 0,0
15.01.2020 03:00:00 6,9 -0,3 2,7 17 9 27 15 ZZW 1021,2 - 0 0,0
15.01.2020 02:00:00 6,8 -0,5 2,8 15 8 26 14 ZZW 1021,2 - 0 0,0
15.01.2020 01:00:00 7,5 -0,8 4,3 15 8 24 13 ZW 1021,1 - 0 0,0
15.01.2020 00:00:00 7,0 0,0 3,3 9 5 22 12 ZW 1021,2 - 0 0,0
14.01.2020 23:00:00 3,8 -0,1 -0,4 5 3 26 14 WZW 1021,8 - 0 0,0
14.01.2020 22:00:00 5,6 1,0 2,0 13 7 19 11 ZW 1021,4 35 0 0,0
14.01.2020 21:00:00 6,2 1,2 1,5 11 6 26 14 ZW 1021,2 - 0 0,0
14.01.2020 20:00:00 5,9 1,0 3,2 18 10 22 12 ZW 1021,5 - 0 0,0
14.01.2020 19:00:00 8,0 0,6 2,0 10 5 18 10 ZW 1021,0 35 0 0,0
14.01.2020 18:00:00 8,2 0,8 3,8 11 6 24 13 ZZW 1020,6 - 0 0,0
14.01.2020 17:00:00 10,2 1,1 8,5 17 9 29 15 ZW 1019,9 - 7 0,0
14.01.2020 16:00:00 11,0 0,9 9,2 16 9 37 20 ZW 1019,7 35 1 0,0
14.01.2020 15:00:00 10,9 0,7 9,8 26 14 44 24 ZZW 1019,6 - 0 0,0
14.01.2020 14:00:00 10,6 -0,1 9,4 29 16 40 22 ZZW 1019,9 - 51 0,0
14.01.2020 13:00:00 10,5 0,0 11,1 24 13 39 21 ZZW 1020,6 40 60 0,0
14.01.2020 12:00:00 10,1 -1,2 9,7 21 12 32 17 ZZW 1021,1 - 60 0,0
14.01.2020 11:00:00 8,3 -0,7 7,9 11 6 21 11 ZZW 1021,5 - 60 0,0
14.01.2020 10:00:00 2,9 0,5 2,3 1 1 8 4 WZW 1022,2 35 53 0,0
14.01.2020 09:00:00 0,5 -0,9 -2,7 4 2 10 6 N 1022,2 - 0 0,0
14.01.2020 08:00:00 0,4 -1,0 -2,4 6 3 18 10 N 1022,1 - 0 0,0
14.01.2020 07:00:00 2,4 -0,2 -1,4 13 7 20 11 ZW 1021,6 20 0 0,0
14.01.2020 06:00:00 -2,3 -3,7 -5,3 6 4 11 6 WZW 1021,9 - 0 0,0
14.01.2020 05:00:00 -1,2 -2,3 -5,0 1 1 13 7 W 1021,3 - 0 0,0
14.01.2020 04:00:00 -1,2 -2,2 -3,4 4 2 11 6 WNW 1021,6 - 0 0,0
14.01.2020 03:00:00 -2,2 -3,2 -4,7 1 1 11 6 O 1022,5 - 0 0,0
14.01.2020 02:00:00 -2,3 -3,2 -5,1 5 3 13 7 WNW 1022,3 - 0 0,0
14.01.2020 01:00:00 -2,3 -3,5 -5,6 2 1 13 7 WNW 1022,9 - 0 0,0
14.01.2020 00:00:00 -2,9 -3,6 -5,5 1 1 12 6 N 1022,9 - 0 0,0
13.01.2020 23:00:00 -1,4 -2,0 -4,3 2 1 7 4 WNW 1022,4 - 0 0,0
13.01.2020 22:00:00 -0,8 -1,5 -3,3 3 2 5 3 WNW 1022,2 9 0 0,0
13.01.2020 21:00:00 0,5 -1,2 -3,1 4 2 7 4 W 1022,3 - 0 0,0
13.01.2020 20:00:00 0,7 -0,9 -3,0 2 1 12 7 NNW 1023,0 - 0 0,0
13.01.2020 19:00:00 2,0 -0,2 -1,3 4 2 8 5 NW 1022,9 16 0 0,0
13.01.2020 18:00:00 2,7 0,2 -1,5 1 1 10 5 Z 1022,6 - 0 0,0
13.01.2020 17:00:00 4,6 1,0 1,2 3 2 9 5 ZZW 1022,2 - 48 0,0
13.01.2020 16:00:00 5,8 1,2 6,5 1 1 11 6 W 1022,0 20 60 0,0
13.01.2020 15:00:00 5,8 -0,3 5,2 3 2 8 4 NNW 1023,0 - 6 0,0
13.01.2020 14:00:00 5,1 0,3 5,3 2 1 7 4 N 1023,5 - 9 0,0
13.01.2020 13:00:00 4,4 0,8 5,4 2 1 12 6 W 1024,4 18 0 0,0
13.01.2020 12:00:00 3,3 0,3 3,9 2 1 7 4 WNW 1026,0 - 0 0,0
13.01.2020 11:00:00 3,0 -0,3 2,9 4 2 13 7 W 1026,9 - 9 0,0
13.01.2020 10:00:00 0,2 -1,6 -0,3 1 1 13 7 NW 1027,5 20 2 0,0
13.01.2020 09:00:00 -1,2 -2,7 -3,2 3 1 8 4 Z 1027,8 - 0 0,0

tt = temperatuur
td = dauwpunt
tt 5cm = temperatuur 5cm
ff = windsnelheid
fx = windstoten
dd = windrichting
ppp = luchtdruk
vv = zicht
sd = Zonneschijnduur
rr = neerslag

Weerstations in de omgeving